Miami, FL

9:41 PM EDT on July 25, 2016 (GMT -0400)
Miami International

Weather History for KMIA - July, 2013

Change the Weather History Date:

Wednesday, July 24, 2013

  Actual Average Record
Temperature  
Mean Temperature 86 °F 84 °F  
Max Temperature 94 °F 91 °F 98 °F (1983)
Min Temperature 78 °F 78 °F 69 °F (1933)
Degree Days  
Heating Degree Days 0 0  
Month to date heating degree days 0 0  
Since 1 June heating degree days 0 0  
Since 1 July heating degree days 0 0  
Cooling Degree Days 21 19  
Month to date cooling degree days 413 455  
Year to date cooling degree days 2406 2343  
Since 1 June cooling degree days 961 987  
Growing Degree Days 36 (Base 50)    
Moisture  
Dew Point 72 °F    
Average Humidity 69    
Maximum Humidity 91    
Minimum Humidity 47    
Precipitation  
Precipitation T in 0.19 in 1.48 in (1937)
Month to date precipitation 11.90 5.10  
Year to date precipitation 37.45 30.12  
Snow  
Snow 0.00 in - - ()
Month to date snowfall 0.0  
Since 1 June snowfall 0.0  
Since 1 July snowfall 0.0  
Snow Depth 0.00 in    
Sea Level Pressure  
Sea Level Pressure 29.99 in    
Wind  
Wind Speed 6 mph (WSW)    
Max Wind Speed 14 mph    
Max Gust Speed 17 mph    
Visibility 10 miles    
Events Rain    
T = Trace of Precipitation, MM = Missing Value Source: NWS Daily Summary

Daily Weather History Graph

Daily Weather History Graph

Search for Another Location

Airport or City:

Trip Planner

Search our weather history database for the weather conditions in past years. The results will help you decide how hot, cold, wet, or windy it might be!

Date:

Astronomy

Jul. 24, 2013 Rise Set
Actual Time 6:43 AM EDT 8:11 PM EDT
Civil Twilight 6:18 AM EDT 8:36 PM EDT
Nautical Twilight 5:48 AM EDT 9:06 PM EDT
Astronomical Twilight 5:17 AM EDT 9:37 PM EDT
Moon 9:39 PM EDT (7/24) 8:43 AM EDT (7/24)
Length of Visible Light 14h 17m
Length of Day
13h 27m
Waning Gibbous, 95% of the Moon is Illuminated
Jul 24
Waning Gibbous
Jul 29
Last Quarter
Aug 6
New
Aug 14
First Quarter
Aug 20
Full

Hourly Weather History & Observations

Time (EDT) Temp. Heat Index Dew Point Humidity Pressure Visibility Wind Dir Wind Speed Gust Speed Precip Events Conditions
12:53 AM 81.0 °F 85.8 °F 73.0 °F 77% 30.04 in 10.0 mi WSW 3.5 mph - N/A   Mostly Cloudy
1:53 AM 81.0 °F 85.8 °F 73.0 °F 77% 30.01 in 10.0 mi WSW 3.5 mph - N/A   Scattered Clouds
2:53 AM 80.1 °F 84.5 °F 73.9 °F 81% 29.99 in 10.0 mi Calm Calm - N/A   Partly Cloudy
3:53 AM 80.1 °F 84.5 °F 73.9 °F 81% 29.98 in 10.0 mi Calm Calm - N/A   Scattered Clouds
4:53 AM 78.1 °F - 73.9 °F 87% 29.98 in 10.0 mi Calm Calm - N/A   Scattered Clouds
5:53 AM 79.0 °F - 75.0 °F 88% 29.99 in 10.0 mi Calm Calm - N/A   Mostly Cloudy
6:53 AM 79.0 °F - 75.0 °F 88% 29.99 in 9.0 mi SSW 3.5 mph - N/A   Mostly Cloudy
7:53 AM 81.0 °F 87.3 °F 75.9 °F 85% 30.00 in 10.0 mi SSW 3.5 mph - N/A   Mostly Cloudy
8:00 AM 80.6 °F 87.1 °F 77.0 °F 89% 30.00 in 10.0 mi Calm Calm - N/A   Mostly Cloudy
8:53 AM 82.0 °F 88.6 °F 75.0 °F 79% 30.01 in 10.0 mi SSW 3.5 mph - N/A   Mostly Cloudy
9:53 AM 86.0 °F 93.8 °F 73.9 °F 67% 30.01 in 10.0 mi WSW 5.8 mph - N/A   Mostly Cloudy
10:46 AM 84.2 °F 90.9 °F 73.4 °F 70% 30.02 in 10.0 mi West 6.9 mph - N/A   Mostly Cloudy
10:53 AM 84.9 °F 91.4 °F 73.0 °F 67% 30.02 in 10.0 mi SW 9.2 mph - N/A   Mostly Cloudy
11:50 AM 87.8 °F 95.6 °F 73.4 °F 62% 30.01 in 10.0 mi Variable 6.9 mph - N/A   Mostly Cloudy
11:53 AM 87.1 °F 94.5 °F 73.0 °F 63% 30.01 in 10.0 mi SW 6.9 mph - N/A   Mostly Cloudy
12:53 PM 90.0 °F 96.9 °F 72.0 °F 55% 30.01 in 10.0 mi Variable 6.9 mph - N/A   Mostly Cloudy
1:53 PM 91.0 °F 96.6 °F 70.0 °F 50% 30.00 in 10.0 mi SW 9.2 mph - N/A   Mostly Cloudy
2:53 PM 91.0 °F 97.6 °F 71.1 °F 52% 29.98 in 10.0 mi WNW 11.5 mph - 0.00 in Rain Light Rain
3:53 PM 91.9 °F 97.4 °F 70.0 °F 48% 29.95 in 10.0 mi WSW 9.2 mph - 0.00 in   Mostly Cloudy
4:53 PM 91.9 °F 96.9 °F 69.1 °F 47% 29.94 in 10.0 mi West 12.7 mph 17.3 mph N/A   Mostly Cloudy
5:53 PM 91.0 °F 95.2 °F 68.0 °F 47% 29.94 in 10.0 mi West 9.2 mph - N/A   Mostly Cloudy
6:53 PM 90.0 °F 92.8 °F 66.9 °F 46% 29.94 in 10.0 mi West 8.1 mph - N/A   Mostly Cloudy
7:53 PM 88.0 °F 92.1 °F 69.1 °F 53% 29.95 in 10.0 mi WSW 9.2 mph - N/A   Mostly Cloudy
8:53 PM 86.0 °F 91.5 °F 71.1 °F 61% 29.97 in 10.0 mi WSW 11.5 mph - N/A   Mostly Cloudy
9:53 PM 84.0 °F 89.6 °F 72.0 °F 67% 29.99 in 10.0 mi WSW 6.9 mph - N/A   Mostly Cloudy
10:53 PM 82.9 °F 87.5 °F 71.1 °F 67% 29.99 in 10.0 mi West 8.1 mph - N/A   Mostly Cloudy
11:53 PM 82.0 °F 86.7 °F 72.0 °F 71% 30.00 in 10.0 mi WSW 6.9 mph - N/A   Mostly Cloudy